This demonstration page uses our WeatherBlox Daily Observations layout. Learn more.

Left ArrowRight Arrow

Hourly Observations for July 16, 2018

Temp ( °F °C ) Dew Point ( °F °C ) Humidity (%) Winds ( mph kmh ) Pressure ( in mb ) Visibility ( mi km ) Precip ( " mm )
12:53 am 00:53 Mostly Clear 71 21.7 68 20 90 90 NNE 6 9 30.05 1018 10 16 0.00 0.00
1:53 am 01:53 Clear 70 21.1 68 20 93 93 undefined N/A 30.06 1018 10 16 0.00 0.00
2:53 am 02:53 Clear 70 21.1 67 19.4 90 90 NNE 8 13 30.06 1018 10 16 0.00 0.00
3:53 am 03:53 Clear 69 20.6 67 19.4 93 93 NE 6 9 30.04 1017 10 16 0.00 0.00
4:53 am 04:53 Clear 68 20 66 18.9 93 93 NNE 6 9 30.04 1017 10 16 0.00 0.00
5:53 am 05:53 Clear 66 18.9 65 18.3 96 96 NNE 6 9 30.05 1018 10 16 0.00 0.00
6:53 am 06:53 Sunny 66 18.9 64 17.8 93 93 N 9 15 30.08 1019 10 16 0.00 0.00
7:51 am 07:51 Partly Cloudy 66 19 64 18 94 94 NNE 7 11 30.06 1018 10 16 0.00 0.00
7:53 am 07:53 Partly Cloudy 67 19.4 65 18.3 93 93 NNE 7 11 30.08 1019 10 16 0.00 0.00
8:02 am 08:02 Mostly Cloudy 68 20 65 18.3 90 90 NNE 7 11 30.03 1017 10 16 0.00 0.00
8:43 am 08:43 Cloudy 67 19.4 65 18.3 93 93 NNE 8 13 30.09 1019 10 16 0.00 0.00
8:53 am 08:53 Cloudy 67 19.4 65 18.3 93 93 NNE 8 13 30.09 1019 10 16 0.00 0.00
9:41 am 09:41 Mostly Cloudy 73 22.8 68 20 84 84 NNE 7 11 30.06 1018 10 16 0.00 0.00
9:51 am 09:51 Partly Cloudy 73 23 68 20 83 83 ENE 7 11 30.06 1018 10 16 0.00 0.00
9:53 am 09:53 Partly Cloudy 73 22.8 68 20 84 84 ENE 6 9 30.09 1019 10 16 0.00 0.00
10:53 am 10:53 Mostly Sunny 76 24.4 69 20.6 79 79 ENE 6 9 30.08 1019 10 16 0.00 0.00
11:53 am 11:53 Sunny 80 26.7 71 21.7 74 74 E 7 11 30.09 1019 10 16 0.00 0.00
12:53 pm 12:53 Sunny 82 27.8 72 22.2 72 72 ESE 5 7 30.08 1019 10 16 0.00 0.00
1:53 pm 13:53 Mostly Cloudy 82 27.8 72 22.2 72 72 NNE 6 9 30.06 1018 10 16 0.00 0.00
2:53 pm 14:53 Partly Cloudy 84 28.9 73 22.8 70 70 ENE 6 9 30.06 1018 10 16 0.00 0.00
3:53 pm 15:53 Mostly Cloudy 83 28.3 73 22.8 72 72 NE 7 11 30.04 1017 10 16 0.00 0.00
4:53 pm 16:53 Mostly Cloudy 86 30 73 22.8 65 65 ENE 7 11 30.03 1017 10 16 0.00 0.00
5:53 pm 17:53 Mostly Cloudy 83 28.3 71 21.7 67 67 S 5 7 30.03 1017 10 16 0.00 0.00
6:53 pm 18:53 Mostly Sunny 84 28.9 70 21.1 63 63 SE 7 11 30.01 1016 10 16 0.00 0.00
7:53 pm 19:53 Sunny 80 26.7 72 22.2 76 76 ESE 7 11 30.00 1016 10 16 0.00 0.00
8:53 pm 20:53 Sunny 78 25.6 72 22.2 82 82 E 3 6 30.03 1017 10 16 0.00 0.00
9:53 pm 21:53 Clear 76 24.4 71 21.7 85 85 ESE 6 9 30.03 1017 10 16 0.00 0.00
10:53 pm 22:53 Clear 75 23.9 71 21.7 88 88 SE 7 11 30.05 1018 10 16 0.00 0.00
11:53 pm 23:53 Clear 74 23.3 69 20.6 85 85 SSE 9 15 30.05 1018 10 16 0.00 0.00

Powered by AerisWeather